Time,TemperatureF,DewpointF,PressureIn,WindDirection,WindDirectionDegrees,WindSpeedMPH,WindSpeedGustMPH,Humidity,HourlyPrecipIn,Conditions,Clouds,dailyrainin,SoftwareType,DateUTC
2013-03-06 00:00:00,31.0,27.0,29.94,ESE,109,0.0,6.0,88,-99.99,,,-99.99,,2013-03-06 05:00:00,
2013-03-06 00:32:00,31.0,27.0,29.94,ESE,109,0.0,6.0,88,-99.99,,,-99.99,,2013-03-06 05:32:00,
2013-03-06 00:42:00,31.0,27.0,29.94,ESE,109,0.0,6.0,88,-99.99,,,-99.99,,2013-03-06 05:42:00,
2013-03-06 00:52:00,31.0,27.0,29.94,ESE,109,0.0,6.0,88,-99.99,,,-99.99,,2013-03-06 05:52:00,
2013-03-06 01:00:00,32.0,29.0,29.91,East,86,2.0,6.0,90,-99.99,,,-99.99,,2013-03-06 06:00:00,
2013-03-06 01:22:00,32.0,29.0,29.91,East,86,2.0,6.0,90,-99.99,,,-99.99,,2013-03-06 06:22:00,
2013-03-06 01:32:00,32.0,29.0,29.91,East,86,2.0,6.0,90,-99.99,,,-99.99,,2013-03-06 06:32:00,
2013-03-06 01:42:00,32.0,29.0,29.91,East,86,2.0,6.0,90,-99.99,,,-99.99,,2013-03-06 06:42:00,
2013-03-06 01:52:00,32.0,29.0,29.91,East,86,2.0,6.0,90,-99.99,,,-99.99,,2013-03-06 06:52:00,
2013-03-06 02:00:00,35.0,31.0,29.85,NE,45,7.0,7.0,86,-99.99,,,-99.99,,2013-03-06 07:00:00,
2013-03-06 02:22:00,35.0,31.0,29.85,NE,45,7.0,7.0,86,-99.99,,,-99.99,,2013-03-06 07:22:00,
2013-03-06 02:32:00,35.0,31.0,29.85,NE,45,7.0,7.0,86,-99.99,,,-99.99,,2013-03-06 07:32:00,
2013-03-06 02:42:00,35.0,31.0,29.85,NE,45,7.0,7.0,86,-99.99,,,-99.99,,2013-03-06 07:42:00,
2013-03-06 02:52:00,35.0,31.0,29.85,NE,45,7.0,7.0,86,-99.99,,,-99.99,,2013-03-06 07:52:00,
2013-03-06 03:00:00,40.0,31.0,29.83,ENE,59,6.0,21.0,73,-99.99,,,-99.99,,2013-03-06 08:00:00,
2013-03-06 03:22:00,40.0,31.0,29.83,ENE,59,6.0,21.0,73,-99.99,,,-99.99,,2013-03-06 08:22:00,
2013-03-06 03:32:00,40.0,31.0,29.83,ENE,59,6.0,21.0,73,-99.99,,,-99.99,,2013-03-06 08:32:00,
2013-03-06 03:42:00,40.0,31.0,29.83,ENE,59,6.0,21.0,73,-99.99,,,-99.99,,2013-03-06 08:42:00,
2013-03-06 03:52:00,40.0,31.0,29.83,ENE,59,6.0,21.0,73,-99.99,,,-99.99,,2013-03-06 08:52:00,
2013-03-06 04:00:00,40.0,33.0,29.83,East,86,12.0,26.0,74,-99.99,,,-99.99,,2013-03-06 09:00:00,
2013-03-06 04:22:00,40.0,33.0,29.83,East,86,12.0,26.0,74,-99.99,,,-99.99,,2013-03-06 09:22:00,
2013-03-06 04:32:00,40.0,33.0,29.83,East,86,12.0,26.0,74,-99.99,,,-99.99,,2013-03-06 09:32:00,
2013-03-06 04:42:00,40.0,33.0,29.83,East,86,12.0,26.0,74,-99.99,,,-99.99,,2013-03-06 09:42:00,
2013-03-06 04:52:00,40.0,33.0,29.83,East,86,12.0,26.0,74,-99.99,,,-99.99,,2013-03-06 09:52:00,
2013-03-06 05:00:00,40.0,33.0,29.80,East,83,19.0,27.0,75,-99.99,,,-99.99,,2013-03-06 10:00:00,
2013-03-06 05:22:00,40.0,33.0,29.80,East,83,19.0,27.0,75,-99.99,,,-99.99,,2013-03-06 10:22:00,
2013-03-06 05:32:00,40.0,33.0,29.80,East,83,19.0,27.0,75,-99.99,,,-99.99,,2013-03-06 10:32:00,
2013-03-06 05:42:00,40.0,33.0,29.80,East,83,19.0,27.0,75,-99.99,,,-99.99,,2013-03-06 10:42:00,
2013-03-06 05:52:00,40.0,33.0,29.80,East,83,19.0,27.0,75,-99.99,,,-99.99,,2013-03-06 10:52:00,
2013-03-06 06:00:00,39.0,35.0,29.77,ENE,63,15.0,28.0,83,-99.99,,,-99.99,,2013-03-06 11:00:00,
2013-03-06 06:23:00,39.0,35.0,29.77,ENE,63,15.0,28.0,83,-99.99,,,-99.99,,2013-03-06 11:23:00,
2013-03-06 06:32:00,39.0,35.0,29.77,ENE,63,15.0,28.0,83,-99.99,,,-99.99,,2013-03-06 11:32:00,
2013-03-06 06:42:00,39.0,35.0,29.77,ENE,63,15.0,28.0,83,-99.99,,,-99.99,,2013-03-06 11:42:00,
2013-03-06 06:52:00,39.0,35.0,29.77,ENE,63,15.0,28.0,83,-99.99,,,-99.99,,2013-03-06 11:52:00,
2013-03-06 07:00:00,40.0,34.0,29.77,ENE,61,14.0,30.0,80,-99.99,,,-99.99,,2013-03-06 12:00:00,
2013-03-06 07:33:00,40.0,34.0,29.77,ENE,61,14.0,30.0,80,-99.99,,,-99.99,,2013-03-06 12:33:00,
2013-03-06 07:43:00,40.0,34.0,29.77,ENE,61,14.0,30.0,80,-99.99,,,-99.99,,2013-03-06 12:43:00,
2013-03-06 07:53:00,40.0,34.0,29.77,ENE,61,14.0,30.0,80,-99.99,,,-99.99,,2013-03-06 12:53:00,
2013-03-06 08:00:00,40.0,35.0,29.77,ENE,72,19.0,32.0,82,-99.99,,,-99.99,,2013-03-06 13:00:00,
2013-03-06 08:22:00,40.0,35.0,29.77,ENE,72,19.0,32.0,82,-99.99,,,-99.99,,2013-03-06 13:22:00,
2013-03-06 08:32:00,40.0,35.0,29.77,ENE,72,19.0,32.0,82,-99.99,,,-99.99,,2013-03-06 13:32:00,
2013-03-06 08:42:00,40.0,35.0,29.77,ENE,72,19.0,32.0,82,-99.99,,,-99.99,,2013-03-06 13:42:00,
2013-03-06 08:52:00,40.0,35.0,29.77,ENE,72,19.0,32.0,82,-99.99,,,-99.99,,2013-03-06 13:52:00,
2013-03-06 09:00:00,40.0,35.0,29.74,ESE,103,4.0,31.0,80,-99.99,,,-99.99,,2013-03-06 14:00:00,
2013-03-06 09:32:00,40.0,35.0,29.74,ESE,103,4.0,31.0,80,-99.99,,,-99.99,,2013-03-06 14:32:00,
2013-03-06 09:42:00,40.0,35.0,29.74,ESE,103,4.0,31.0,80,-99.99,,,-99.99,,2013-03-06 14:42:00,
2013-03-06 09:53:00,40.0,35.0,29.74,ESE,103,4.0,31.0,80,-99.99,,,-99.99,,2013-03-06 14:53:00,
2013-03-06 10:00:00,40.0,36.0,29.71,NE,36,23.0,38.0,83,-99.99,,,-99.99,,2013-03-06 15:00:00,
2013-03-06 10:22:00,40.0,36.0,29.71,NE,36,23.0,38.0,83,-99.99,,,-99.99,,2013-03-06 15:22:00,
2013-03-06 10:32:00,40.0,36.0,29.71,NE,36,23.0,38.0,83,-99.99,,,-99.99,,2013-03-06 15:32:00,
2013-03-06 10:42:00,40.0,36.0,29.71,NE,36,23.0,38.0,83,-99.99,,,-99.99,,2013-03-06 15:42:00,
2013-03-06 10:52:00,40.0,36.0,29.71,NE,36,23.0,38.0,83,-99.99,,,-99.99,,2013-03-06 15:52:00,
2013-03-06 11:00:00,40.0,36.0,29.71,ENE,67,18.0,37.0,85,-99.99,,,-99.99,,2013-03-06 16:00:00,
2013-03-06 11:32:00,40.0,36.0,29.71,ENE,67,18.0,37.0,85,-99.99,,,-99.99,,2013-03-06 16:32:00,
2013-03-06 11:42:00,40.0,36.0,29.71,ENE,67,18.0,37.0,85,-99.99,,,-99.99,,2013-03-06 16:42:00,
2013-03-06 11:52:00,40.0,36.0,29.71,ENE,67,18.0,37.0,85,-99.99,,,-99.99,,2013-03-06 16:52:00,
2013-03-06 12:00:00,41.0,35.0,29.68,ENE,67,17.0,41.0,79,-99.99,,,-99.99,,2013-03-06 17:00:00,
2013-03-06 12:22:00,41.0,35.0,29.68,ENE,67,17.0,41.0,79,-99.99,,,-99.99,,2013-03-06 17:22:00,
2013-03-06 12:32:00,41.0,35.0,29.68,ENE,67,17.0,41.0,79,-99.99,,,-99.99,,2013-03-06 17:32:00,
2013-03-06 12:42:00,41.0,35.0,29.68,ENE,67,17.0,41.0,79,-99.99,,,-99.99,,2013-03-06 17:42:00,
2013-03-06 12:53:00,41.0,35.0,29.68,ENE,67,17.0,41.0,79,-99.99,,,-99.99,,2013-03-06 17:53:00,
2013-03-06 13:00:00,39.0,35.0,29.65,East,79,22.0,44.0,86,-99.99,,,-99.99,,2013-03-06 18:00:00,
2013-03-06 13:32:00,39.0,35.0,29.65,East,79,22.0,44.0,86,-99.99,,,-99.99,,2013-03-06 18:32:00,
2013-03-06 13:42:00,39.0,35.0,29.65,East,79,22.0,44.0,86,-99.99,,,-99.99,,2013-03-06 18:42:00,
2013-03-06 13:53:00,39.0,35.0,29.65,East,79,22.0,44.0,86,-99.99,,,-99.99,,2013-03-06 18:53:00,
2013-03-06 14:00:00,39.0,36.0,29.68,NE,50,17.0,45.0,88,-99.99,,,-99.99,,2013-03-06 19:00:00,
2013-03-06 14:22:00,39.0,36.0,29.68,NE,50,17.0,45.0,88,-99.99,,,-99.99,,2013-03-06 19:22:00,
2013-03-06 14:33:00,39.0,36.0,29.68,NE,50,17.0,45.0,88,-99.99,,,-99.99,,2013-03-06 19:33:00,
2013-03-06 14:43:00,39.0,36.0,29.68,NE,50,17.0,45.0,88,-99.99,,,-99.99,,2013-03-06 19:43:00,
2013-03-06 14:53:00,39.0,36.0,29.68,NE,50,17.0,45.0,88,-99.99,,,-99.99,,2013-03-06 19:53:00,
2013-03-06 15:00:00,38.0,35.0,29.68,NE,50,25.0,49.0,88,-99.99,,,-99.99,,2013-03-06 20:00:00,
2013-03-06 15:23:00,38.0,35.0,29.68,NE,50,25.0,49.0,88,-99.99,,,-99.99,,2013-03-06 20:23:00,
2013-03-06 15:33:00,38.0,35.0,29.68,NE,50,25.0,49.0,88,-99.99,,,-99.99,,2013-03-06 20:33:00,
2013-03-06 15:43:00,38.0,35.0,29.68,NE,50,25.0,49.0,88,-99.99,,,-99.99,,2013-03-06 20:43:00,
2013-03-06 15:53:00,38.0,35.0,29.68,NE,50,25.0,49.0,88,-99.99,,,-99.99,,2013-03-06 20:53:00,
2013-03-06 16:00:00,38.0,34.0,29.68,NE,55,25.0,43.0,85,-99.99,,,-99.99,,2013-03-06 21:00:00,
2013-03-06 16:22:00,38.0,34.0,29.68,NE,55,25.0,43.0,85,-99.99,,,-99.99,,2013-03-06 21:22:00,
2013-03-06 16:33:00,38.0,34.0,29.68,NE,55,25.0,43.0,85,-99.99,,,-99.99,,2013-03-06 21:33:00,
2013-03-06 16:42:00,38.0,34.0,29.68,NE,55,25.0,43.0,85,-99.99,,,-99.99,,2013-03-06 21:42:00,
2013-03-06 16:52:00,38.0,34.0,29.68,NE,55,25.0,43.0,85,-99.99,,,-99.99,,2013-03-06 21:52:00,
2013-03-06 17:00:00,38.0,34.0,29.71,NE,37,21.0,44.0,85,-99.99,,,-99.99,,2013-03-06 22:00:00,
2013-03-06 17:22:00,38.0,34.0,29.71,NE,37,21.0,44.0,85,-99.99,,,-99.99,,2013-03-06 22:22:00,
2013-03-06 17:32:00,38.0,34.0,29.71,NE,37,21.0,44.0,85,-99.99,,,-99.99,,2013-03-06 22:32:00,
2013-03-06 17:42:00,38.0,34.0,29.71,NE,37,21.0,44.0,85,-99.99,,,-99.99,,2013-03-06 22:42:00,
2013-03-06 17:52:00,38.0,34.0,29.71,NE,37,21.0,44.0,85,-99.99,,,-99.99,,2013-03-06 22:52:00,
2013-03-06 18:00:00,37.0,34.0,29.74,NE,49,20.0,35.0,89,-99.99,,,-99.99,,2013-03-06 23:00:00,
2013-03-06 18:22:00,37.0,34.0,29.74,NE,49,20.0,35.0,89,-99.99,,,-99.99,,2013-03-06 23:22:00,
2013-03-06 18:32:00,37.0,34.0,29.74,NE,49,20.0,35.0,89,-99.99,,,-99.99,,2013-03-06 23:32:00,
2013-03-06 18:42:00,37.0,34.0,29.74,NE,49,20.0,35.0,89,-99.99,,,-99.99,,2013-03-06 23:42:00,
2013-03-06 18:52:00,37.0,34.0,29.74,NE,49,20.0,35.0,89,-99.99,,,-99.99,,2013-03-06 23:52:00,
2013-03-06 19:00:00,37.0,34.0,29.80,NNE,29,10.0,35.0,87,-99.99,,,-99.99,,2013-03-07 00:00:00,
2013-03-06 19:22:00,37.0,34.0,29.80,NNE,29,10.0,35.0,87,-99.99,,,-99.99,,2013-03-07 00:22:00,
2013-03-06 19:32:00,37.0,34.0,29.80,NNE,29,10.0,35.0,87,-99.99,,,-99.99,,2013-03-07 00:32:00,
2013-03-06 19:42:00,37.0,34.0,29.80,NNE,29,10.0,35.0,87,-99.99,,,-99.99,,2013-03-07 00:42:00,
2013-03-06 19:52:00,37.0,34.0,29.80,NNE,29,10.0,35.0,87,-99.99,,,-99.99,,2013-03-07 00:52:00,
2013-03-06 20:00:00,36.0,33.0,29.80,NNE,17,14.0,30.0,89,-99.99,,,-99.99,,2013-03-07 01:00:00,
2013-03-06 20:32:00,36.0,33.0,29.80,NNE,17,14.0,30.0,89,-99.99,,,-99.99,,2013-03-07 01:32:00,
2013-03-06 20:42:00,36.0,33.0,29.80,NNE,17,14.0,30.0,89,-99.99,,,-99.99,,2013-03-07 01:42:00,
2013-03-06 20:52:00,36.0,33.0,29.80,NNE,17,14.0,30.0,89,-99.99,,,-99.99,,2013-03-07 01:52:00,
2013-03-06 21:00:00,35.0,32.0,29.83,NNE,14,11.0,30.0,90,-99.99,,,-99.99,,2013-03-07 02:00:00,
2013-03-06 21:22:00,35.0,32.0,29.83,NNE,14,11.0,30.0,90,-99.99,,,-99.99,,2013-03-07 02:22:00,
2013-03-06 21:32:00,35.0,32.0,29.83,NNE,14,11.0,30.0,90,-99.99,,,-99.99,,2013-03-07 02:32:00,
2013-03-06 21:42:00,35.0,32.0,29.83,NNE,14,11.0,30.0,90,-99.99,,,-99.99,,2013-03-07 02:42:00,
2013-03-06 21:52:00,35.0,32.0,29.83,NNE,14,11.0,30.0,90,-99.99,,,-99.99,,2013-03-07 02:52:00,
2013-03-06 22:00:00,35.0,32.0,29.83,NNE,28,18.0,29.0,91,-99.99,,,-99.99,,2013-03-07 03:00:00,
2013-03-06 22:22:00,35.0,32.0,29.83,NNE,28,18.0,29.0,91,-99.99,,,-99.99,,2013-03-07 03:22:00,
2013-03-06 22:32:00,35.0,32.0,29.83,NNE,28,18.0,29.0,91,-99.99,,,-99.99,,2013-03-07 03:32:00,
2013-03-06 22:42:00,35.0,32.0,29.83,NNE,28,18.0,29.0,91,-99.99,,,-99.99,,2013-03-07 03:42:00,
2013-03-06 22:52:00,35.0,32.0,29.83,NNE,28,18.0,29.0,91,-99.99,,,-99.99,,2013-03-07 03:52:00,
2013-03-06 23:00:00,34.0,32.0,29.85,NNE,25,14.0,27.0,91,-99.99,,,-99.99,,2013-03-07 04:00:00,
2013-03-06 23:22:00,34.0,32.0,29.85,NNE,25,14.0,27.0,91,-99.99,,,-99.99,,2013-03-07 04:22:00,
2013-03-06 23:32:00,34.0,32.0,29.85,NNE,25,14.0,27.0,91,-99.99,,,-99.99,,2013-03-07 04:32:00,
2013-03-06 23:42:00,34.0,32.0,29.85,NNE,25,14.0,27.0,91,-99.99,,,-99.99,,2013-03-07 04:42:00,
2013-03-06 23:52:00,34.0,32.0,29.85,NNE,25,14.0,27.0,91,-99.99,,,-99.99,,2013-03-07 04:52:00,